TimeMST,TemperatureF,Dew PointF,Humidity,Sea Level PressureIn,VisibilityMPH,Wind Direction,Wind SpeedMPH,Gust SpeedMPH,PrecipitationIn,Events,Conditions,WindDirDegrees,DateUTC
12:53 AM,21.0,17.1,85,30.30,10.0,East,3.5,-,N/A,,Scattered Clouds,90,2013-02-27 07:53:00
1:53 AM,19.9,16.0,85,30.31,10.0,East,5.8,-,N/A,,Clear,80,2013-02-27 08:53:00
2:53 AM,19.0,16.0,88,30.31,10.0,ENE,5.8,-,N/A,,Clear,70,2013-02-27 09:53:00
3:53 AM,19.0,16.0,88,30.30,10.0,East,5.8,-,N/A,,Clear,90,2013-02-27 10:53:00
4:53 AM,16.0,12.9,88,30.31,10.0,Calm,Calm,-,N/A,,Clear,0,2013-02-27 11:53:00
5:53 AM,16.0,12.9,88,30.32,10.0,Calm,Calm,-,N/A,,Clear,0,2013-02-27 12:53:00
6:53 AM,16.0,12.9,88,30.32,10.0,East,4.6,-,N/A,,Clear,90,2013-02-27 13:53:00
7:53 AM,18.0,15.1,88,30.31,10.0,East,4.6,-,N/A,,Clear,80,2013-02-27 14:53:00
8:53 AM,21.9,17.1,82,30.30,10.0,East,4.6,-,N/A,,Clear,90,2013-02-27 15:53:00
9:53 AM,26.1,19.9,78,30.30,10.0,East,5.8,-,N/A,,Clear,90,2013-02-27 16:53:00
10:53 AM,30.0,21.0,69,30.29,10.0,ENE,5.8,-,N/A,,Clear,70,2013-02-27 17:53:00
11:53 AM,35.1,21.9,59,30.27,-9999.0,North,-9999.0,-,N/A,,Clear,0,2013-02-27 18:53:00
12:53 PM,37.0,21.9,54,30.25,-9999.0,North,-9999.0,-,N/A,,Scattered Clouds,0,2013-02-27 19:53:00
1:53 PM,37.9,24.1,57,30.23,10.0,SW,5.8,-,N/A,,Overcast,220,2013-02-27 20:53:00
2:53 PM,39.9,24.1,53,30.20,10.0,SSW,8.1,-,N/A,,Mostly Cloudy,210,2013-02-27 21:53:00
3:53 PM,39.9,24.1,53,30.19,10.0,SSW,6.9,-,N/A,,Clear,210,2013-02-27 22:53:00
4:53 PM,42.1,21.0,43,30.18,10.0,Calm,Calm,-,N/A,,Clear,0,2013-02-27 23:53:00
5:53 PM,34.0,28.0,79,30.20,10.0,NE,9.2,-,N/A,,Mostly Cloudy,50,2013-02-28 00:53:00
6:53 PM,32.0,26.1,79,30.23,10.0,Variable,6.9,-,N/A,,Mostly Cloudy,0,2013-02-28 01:53:00
7:53 PM,30.9,26.1,82,30.22,10.0,ESE,3.5,-,N/A,,Overcast,110,2013-02-28 02:53:00
8:53 PM,30.9,24.1,76,30.22,10.0,SW,9.2,-,N/A,,Clear,230,2013-02-28 03:53:00
9:53 PM,28.0,21.9,78,30.22,10.0,SW,6.9,-,N/A,,Clear,230,2013-02-28 04:53:00
10:53 PM,28.0,21.0,75,30.22,10.0,WSW,4.6,-,N/A,,Clear,240,2013-02-28 05:53:00
11:53 PM,30.0,21.9,72,30.20,10.0,SW,11.5,-,N/A,,Clear,220,2013-02-28 06:53:00